Regional Weather Roundup
Issued by NWS

Home | Current Version | Previous Version | Text Only | Print | Product List | Glossary Off
Versions: 1 2 3 4 5 6 7 8 9 10 11 12 13 14 15 16 17 18 19 20 21 22 23 24 25 26 27 28 29 30 31 32 33 34 35 36 37 38 39 40 41 42 43 44 45 46 47 48 49 50

000
ASUS43 KOAX 301410
RWRNE

WEATHER ROUNDUP FOR NEBRASKA
NATIONAL WEATHER SERVICE OMAHA NE
900 AM CDT SAT JUL 30 2016

NOTES: SATELLITE DATA IS BEING USED TO AUGMENT CLOUD COVER ABOVE
       12000 FEET.
       "FAIR" INDICATES FEW OR NO CLOUDS BELOW 12,000 FEET WITH NO
       SIGNIFICANT WEATHER AND/OR OBSTRUCTIONS TO VISIBILITY.

  * THESE STATIONS DO NOT REPORT WEATHER SUCH AS RAIN...SNOW OR FOG.

NEZ001>004-019>022-054>056-301500-
NEBRASKA PANHANDLE

CITY           SKY/WX    TMP DP  RH WIND       PRES   REMARKS
SCOTTSBLUFF    SUNNY     64  59  83 E10       30.01F
ALLIANCE       SUNNY     65  60  84 S7        30.01F
CHADRON        MOSUNNY   66  62  87 CALM      29.97R
KIMBALL        SUNNY     69  63  81 SW10G18   30.07S
SIDNEY         MOSUNNY   64  62  93 S7        30.04F
$$

NEZ057>060-069>072-079>082-301500-
SOUTHWEST NEBRASKA

CITY           SKY/WX    TMP DP  RH WIND       PRES   REMARKS
NORTH PLATTE   MOSUNNY   68  65  90 E9        30.01F
IMPERIAL       CLOUDY    68  62  81 S7        30.00F
LEXINGTON      PTSUNNY   67  64  89 E10       30.04R
MCCOOK         SUNNY     70  65  84 E6        30.00R
OGALLALA       CLOUDY    68  64  84 CALM      30.01S
$$

NEZ005>010-023>029-035>040-094-301500-
NORTH CENTRAL NEBRASKA

CITY           SKY/WX    TMP DP  RH WIND       PRES   REMARKS
VALENTINE      SUNNY     71  61  70 S16G24    30.00F
AINSWORTH      MOSUNNY   70  58  66 S13       30.02S
BROKEN BOW     CLOUDY    64  60  87 E13       30.06R
O`NEILL        CLOUDY    66  63  89 S5        30.03R
ORD            RAIN      64  62  93 SE5       30.03F
THEDFORD       CLOUDY    65  64  95 SE12      30.05S FOG
$$

NEZ041-046>049-061>064-073>077-083>087-301500-
SOUTH CENTRAL NEBRASKA

CITY           SKY/WX    TMP DP  RH WIND       PRES   REMARKS
GRAND ISLAND   TSTM      62  59  90 E15       30.03
AURORA         TSTM      63  63  99 N7        30.06R
HASTINGS       TSTM      63  61  93 NE14G23   30.06R FOG
HEBRON         CLOUDY    68  64  85 SE6       30.02F
HOLDREGE       CLOUDY    67  64  89 SE7       30.02S
KEARNEY *      CLOUDY    64  63  94 NE9       30.06R
YORK           LGT RAIN  64  63  94 SE6       30.04S
$$

NEZ011>018-030>034-042>045-301500-
NORTHEAST NEBRASKA

CITY           SKY/WX    TMP DP  RH WIND       PRES   REMARKS
NORFOLK        CLOUDY    64  61  90 CALM      30.06R
ALBION         RAIN      63  61  93 S3        30.06S
BLAIR          MOSUNNY   68  63  84 E3        30.05S
FREMONT        CLOUDY    68  62  79 CALM      30.06R
TEKAMAH        CLOUDY    67  62  84 CALM      30.05R
WAYNE          CLOUDY    66  64  91 CALM      30.05S
$$

NEZ050>053-065>068-078-088>093-301500-
SOUTHEAST NEBRASKA

CITY           SKY/WX    TMP DP  RH WIND       PRES   REMARKS
OMAHA EPPLEY   PTSUNNY   69  63  81 CALM      30.05S
BEATRICE       MOSUNNY   69  63  80 E3        30.03S
FALLS CITY     SUNNY     70  66  87 VRB3      30.03R
NEBRASKA CITY  SUNNY     68  67  97 CALM      30.05R
PLATTSMOUTH    MOSUNNY   68  65  88 CALM      30.05R
$$

NEZ044-045-051>053-067-301500-
OMAHA AREA

CITY           SKY/WX    TMP DP  RH WIND       PRES   REMARKS
OMAHA EPPLEY   PTSUNNY   69  63  81 CALM      30.05S
BLAIR          MOSUNNY   68  63  84 E3        30.05S
FREMONT        CLOUDY    68  62  79 CALM      30.06R
MILLARD        PTSUNNY   71  64  78 CALM      30.05R
OFFUTT AFB     PTSUNNY   66  66 100 CALM      30.04S
PLATTSMOUTH    MOSUNNY   68  65  88 CALM      30.05R
WAHOO          FAIR      66  64  90 CALM      30.06R
$$




USA.gov is the U.S. government's official web portal to all federal, state and local government web resources and services.